Theta_e
324 324 324 324 324 324 324 325 325 325 325 324 324 324 325 325 324 320 304 314 321 347 347 320 324 322 323 321 337 335 314 311 316 317 319 327 325 332 332 328 331 332 331 333 338
325 324 324 324 324 324 324 324 324 324 323 323 323 324 325 325 318 310 325 343 350 352 317 313 312 315 313 318 331 322 312 315 325 323 322 328 330 331 325 325 328 329 334 337 338
323 323 323 323 324 324 323 323 323 322 323 323 323 324 325 323 313 309 341 342 352 346 315 314 313 313 307 324 328 328 320 324 327 325 328 328 328 329 324 321 328 327 331 334 336
322 322 322 322 323 324 323 323 322 322 321 322 322 324 325 318 303 314 352 349 348 324 316 314 313 309 310 323 331 322 331 329 332 330 327 326 330 325 326 324 333 333 333 334 334
321 321 321 321 321 322 323 323 321 320 321 322 322 324 320 312 308 326 347 346 327 317 315 313 310 311 319 325 328 325 328 329 333 330 331 331 328 329 327 329 334 335 334 333 334
321 320 320 320 321 322 323 322 320 320 321 322 322 324 315 303 324 324 325 324 316 313 312 312 311 324 323 324 324 327 329 327 328 327 329 324 326 328 329 334 329 332 331 333 334
320 320 320 321 322 322 322 321 320 320 322 322 323 323 317 312 322 321 316 314 313 313 311 314 314 311 325 319 330 324 321 323 324 325 325 327 321 321 328 331 327 330 327 332 334
321 321 321 322 322 321 320 319 320 321 325 324 325 319 310 327 324 316 312 309 314 314 313 315 314 315 324 328 326 316 321 315 323 326 327 322 312 322 327 330 328 330 328 329 331
320 320 320 320 320 319 318 319 320 324 325 325 315 315 312 329 318 319 313 311 311 311 312 320 314 316 322 315 310 317 310 314 317 326 323 319 315 323 327 326 327 329 326 327 328
320 319 319 319 319 317 316 318 324 321 322 323 322 309 315 317 317 318 317 317 311 311 312 309 306 301 310 307 301 306 307 314 313 322 321 316 316 322 324 325 327 328 327 327 327
319 319 318 318 317 316 313 307 311 312 314 310 311 311 316 321 319 316 317 311 307 304 300 304 300 297 301 313 313 311 310 314 318 323 319 315 317 319 322 323 323 327 326 327 324
318 318 318 316 315 315 309 302 308 313 303 317 319 316 318 314 307 311 313 307 304 298 300 299 296 305 306 316 313 312 310 313 316 324 320 318 318 321 321 320 323 324 327 327 330
317 317 315 314 314 311 308 309 312 307 300 307 316 315 316 317 308 307 311 307 301 298 299 297 302 308 309 314 312 309 307 311 313 320 318 317 311 311 320 323 324 325 329 331 330
317 317 314 313 312 313 313 316 319 309 295 302 305 311 315 311 306 313 312 307 302 299 299 298 305 305 303 308 313 302 313 316 318 313 304 315 299 309 313 320 323 323 326 329 329
316 316 313 312 308 312 315 320 320 308 288 308 306 316 313 307 305 307 313 307 302 302 300 300 302 301 300 303 308 300 314 314 320 313 307 309 300 306 314 312 319 323 325 329 329
315 314 313 312 309 315 318 317 306 296 290 305 310 307 305 304 306 308 308 307 308 303 301 301 305 303 302 305 305 306 307 309 308 306 297 303 304 303 307 313 318 323 325 329 329
313 312 311 315 308 315 315 306 293 290 304 304 302 305 303 302 304 305 302 300 297 293 291 299 301 303 305 298 300 301 298 293 293 293 292 299 302 304 313 316 319 319 325 328 330
311 310 311 315 314 315 311 299 289 300 298 304 303 304 302 303 302 303 300 297 299 297 293 292 292 298 304 300 296 297 297 294 289 291 296 302 298 304 317 321 323 323 327 330 330
310 310 312 316 317 315 304 292 294 297 302 301 300 298 301 305 303 301 298 298 301 299 294 291 294 303 305 305 303 298 296 300 296 296 296 300 305 313 319 318 320 320 324 328 330
309 308 312 318 320 309 300 295 297 304 305 302 295 298 294 298 301 297 297 301 301 304 303 297 292 300 303 305 304 303 305 296 294 290 291 298 302 301 309 316 318 321 322 327 331
308 308 317 320 313 303 295 296 302 307 308 301 299 298 297 297 300 299 299 303 305 304 302 297 296 299 302 298 299 299 295 294 295 296 292 294 299 309 310 317 319 320 322 325 329
307 303 317 314 300 298 296 300 304 306 307 305 304 303 302 299 296 297 303 306 309 307 300 300 294 292 299 304 305 302 298 294 293 294 296 296 297 314 319 320 321 320 321 323 329
302 305 318 311 296 297 302 305 307 307 307 304 303 305 306 300 296 300 302 311 311 307 301 301 293 289 293 296 303 298 299 298 296 300 296 293 297 313 315 313 318 318 322 326 328
303 302 308 309 305 306 302 304 305 313 310 309 305 304 300 297 300 299 302 308 311 310 324 309 293 292 290 294 303 301 305 303 295 294 296 298 302 310 315 314 319 321 323 325 327
305 304 305 300 303 306 302 304 305 305 309 308 305 304 299 294 297 298 304 305 309 315 308 300 294 295 297 306 306 305 305 305 300 298 295 299 303 309 316 318 321 324 325 327 327
302 302 304 302 306 305 302 300 304 306 307 305 304 307 306 295 298 298 304 300 303 307 304 302 297 298 298 306 306 305 307 306 305 302 300 304 306 312 318 324 322 325 326 326 326
306 307 303 300 300 299 303 305 306 308 309 311 309 306 304 306 308 308 307 307 304 302 303 301 298 296 292 304 303 298 304 307 306 306 303 302 307 313 313 318 321 321 327 327 328
Wind_Speed
14 14 14 14 14 14 14 14 14 13 13 13 12 11 9 11 14 3 6 11 7 8 5 4 5 3 4 4 6 4 3 3 8 12 7 15 6 5 9 17 8 5 11 15 16
16 15 15 15 15 14 14 14 14 15 13 12 10 10 9 9 2 7 11 10 10 11 3 3 6 4 2 6 4 4 3 8 7 5 6 1 4 7 13 14 16 18 14 18 19
17 17 17 17 17 17 16 15 14 13 13 10 9 9 8 6 3 9 11 17 10 8 3 2 4 1 2 4 5 5 4 4 4 10 3 2 7 10 17 14 23 24 23 20 18
18 18 18 18 18 18 17 16 14 13 11 9 7 8 7 2 4 3 3 15 11 5 3 3 2 3 3 4 0 1 2 3 5 4 3 3 3 9 1 13 19 23 24 20 18
19 19 18 19 20 19 18 16 15 12 9 7 5 5 2 2 10 3 9 10 6 5 5 2 2 2 5 3 4 8 4 5 9 9 7 8 4 2 9 15 20 18 20 19 14
19 20 19 20 21 20 18 16 15 11 8 5 4 2 1 3 6 8 9 6 4 5 5 5 5 7 6 4 10 5 8 4 9 6 2 8 4 5 6 7 14 22 18 17 16
20 20 21 20 19 19 18 17 14 10 6 5 5 3 0 13 2 6 11 8 6 6 4 5 4 1 7 6 5 13 6 3 5 1 5 15 6 5 6 7 9 0 12 16 15
16 18 19 20 19 18 18 19 16 8 6 7 6 2 8 7 5 5 3 3 5 7 6 9 3 5 5 8 4 4 3 3 4 6 5 1 4 7 12 6 5 7 11 18 20
18 19 20 20 20 20 19 21 11 3 4 8 3 3 10 10 7 9 9 6 7 6 6 10 4 6 3 7 4 2 2 4 4 9 5 4 5 15 13 5 8 9 15 17 15
18 19 21 21 20 18 22 17 7 3 3 5 5 3 4 5 4 6 9 7 5 4 3 2 5 3 3 4 5 6 3 4 1 9 5 5 6 9 9 9 9 2 7 9 15
20 20 21 22 21 16 13 2 4 2 2 10 9 7 5 5 4 4 7 3 2 4 5 5 4 7 11 9 7 9 8 4 4 7 6 7 3 6 10 9 9 6 4 4 9
19 21 22 24 23 20 3 1 7 2 9 15 15 11 10 1 3 4 8 5 4 6 3 5 6 16 7 11 7 6 9 6 14 7 4 6 6 3 11 15 13 12 8 9 9
20 21 25 29 29 4 3 7 8 4 4 9 13 8 9 9 11 10 11 6 4 4 5 8 13 2 8 6 9 5 9 10 4 10 3 4 6 5 6 7 8 7 7 8 16
20 20 24 33 4 7 5 6 9 2 5 10 5 8 5 8 7 8 11 7 3 10 8 7 15 12 9 11 11 6 18 15 14 13 6 10 5 6 6 6 11 12 7 11 13
20 18 22 11 5 5 7 12 13 6 4 5 3 4 9 10 4 4 8 4 8 7 7 11 5 5 8 8 14 12 12 18 21 13 5 4 2 9 4 6 9 13 12 13 14
21 18 17 1 3 10 10 14 5 7 8 5 7 7 7 4 4 4 5 1 3 4 4 10 6 6 9 6 4 4 5 9 6 3 2 6 7 6 6 15 9 12 13 16 15
23 22 8 4 6 2 6 5 6 4 5 4 2 6 8 7 5 9 8 7 7 2 5 8 9 7 4 3 6 5 7 4 4 5 6 3 4 10 7 6 15 19 16 17 16
25 27 6 8 5 3 3 5 3 6 4 5 6 1 7 7 7 7 8 7 7 6 3 2 11 3 4 8 7 6 10 8 7 4 4 4 1 7 7 11 6 7 14 18 16
24 3 4 6 10 2 6 2 7 6 3 6 7 4 10 4 4 7 10 11 10 10 9 5 8 6 7 8 10 4 3 7 8 1 4 5 6 5 5 4 5 6 13 14 17
5 5 5 3 10 5 6 6 5 2 6 4 1 3 6 6 5 5 11 9 7 14 14 9 5 6 5 5 3 9 7 4 4 4 3 4 3 6 6 8 7 7 9 8 13
2 5 5 9 5 6 3 7 6 6 6 3 3 7 4 6 5 2 9 7 13 8 13 7 6 14 4 4 8 2 1 3 6 7 7 3 7 8 10 12 7 8 11 11 12
4 3 4 3 4 1 3 5 4 7 5 6 5 7 7 5 4 3 4 4 6 17 9 12 7 7 13 6 10 9 8 7 6 3 2 4 5 7 8 9 11 9 7 7 12
4 5 6 6 1 3 6 7 7 15 15 6 6 7 6 6 2 2 5 5 5 3 10 7 4 2 10 8 5 3 4 3 5 4 5 5 5 2 7 7 8 10 7 7 6
3 5 6 5 2 4 6 7 8 9 11 7 10 8 6 5 5 4 4 8 9 4 3 9 4 10 10 8 5 3 1 6 6 4 5 6 7 7 7 12 7 7 7 6 6
1 2 1 4 6 10 3 6 10 9 4 8 8 8 7 6 3 4 0 12 7 8 7 6 5 5 5 7 5 3 1 2 1 7 6 7 9 15 16 11 14 12 7 8 8
3 4 5 4 6 8 4 5 9 11 7 6 8 14 13 3 6 2 1 3 4 7 5 6 3 1 2 8 8 2 5 5 1 7 3 13 5 5 13 13 8 12 10 9 10
4 4 3 5 5 4 5 11 13 11 7 10 10 9 6 13 14 9 5 5 6 3 4 4 1 4 3 6 6 3 7 7 3 5 8 9 12 8 5 11 13 9 11 11 10
Wind_Direction
356 354 352 346 341 334 329 325 322 319 320 320 322 325 325 319 307 151 245 223 185 203 195 258 203 212 173 204 128 127 75 162 162 156 217 226 266 187 137 135 163 149 142 154 145
356 353 350 346 343 338 334 328 323 318 319 318 320 321 322 327 301 243 235 233 224 172 203 246 291 340 291 181 113 106 161 198 192 183 202 257 242 318 136 147 103 112 123 142 142
355 352 350 348 344 338 335 330 325 318 313 314 314 315 316 325 320 250 199 204 168 181 261 292 291 300 228 135 163 188 201 159 206 194 242 326 33 41 121 137 145 145 152 154 153
352 349 348 346 343 338 332 330 324 317 309 307 309 310 318 288 191 297 39 169 158 175 256 269 300 6 57 69 94 326 291 359 96 159 107 352 85 66 105 129 149 151 153 160 158
348 347 343 341 339 334 330 327 326 318 307 297 291 301 297 25 251 186 128 126 138 167 226 214 310 51 103 77 115 16 92 47 72 92 108 82 47 113 114 141 154 150 155 161 167
346 343 341 337 333 330 326 324 328 318 301 282 259 265 176 273 241 157 140 134 185 181 212 164 227 93 105 98 78 283 89 69 93 122 148 79 348 325 64 12 169 160 164 167 168
344 341 336 324 324 325 322 321 326 313 284 239 208 224 231 236 265 155 154 184 183 181 225 212 230 236 138 107 150 55 53 5 92 128 110 119 15 332 323 308 163 24 159 164 179
336 327 324 324 323 323 320 316 317 297 263 191 181 213 247 241 191 171 201 244 231 219 207 256 233 102 93 132 92 60 94 287 213 180 191 31 178 218 279 273 296 308 168 151 182
328 326 325 323 323 323 318 317 307 252 122 157 139 183 268 301 160 208 161 204 204 251 257 265 64 123 146 122 75 110 146 231 163 208 161 190 172 213 221 236 296 292 159 167 163
328 325 322 322 323 324 318 310 143 113 177 210 260 330 274 247 208 191 185 203 193 209 311 310 64 103 58 99 211 160 147 256 162 188 173 205 223 182 199 200 224 196 165 185 159
329 326 324 322 321 324 337 33 21 12 213 208 195 217 275 241 132 174 197 179 116 107 183 276 90 228 224 202 192 143 133 169 340 210 157 200 188 202 203 224 217 183 208 186 188
328 327 327 326 320 319 172 186 220 177 297 229 240 239 256 306 273 188 123 143 135 212 187 5 239 238 229 204 206 123 140 185 181 195 112 213 215 240 211 209 213 193 198 145 135
329 330 333 326 319 111 200 228 273 15 290 274 206 204 220 155 223 202 144 180 183 211 202 188 241 205 185 218 232 135 180 191 171 160 73 123 295 239 208 249 210 203 184 155 159
329 331 337 331 30 325 270 283 321 169 35 278 211 234 158 161 227 177 177 142 200 214 216 219 257 246 250 222 191 168 207 189 163 144 212 189 248 257 212 215 227 227 181 167 177
325 327 333 322 293 311 273 323 318 61 347 251 208 149 157 170 171 211 163 84 215 240 103 242 259 242 242 211 171 224 152 204 170 175 123 211 63 269 122 235 230 226 182 178 184
320 319 330 189 234 240 311 304 44 48 257 284 159 145 124 190 212 99 156 12 179 230 250 250 245 190 220 262 191 240 119 53 115 136 13 228 161 275 206 224 204 221 195 178 178
315 308 303 254 234 327 331 35 51 166 312 287 145 141 160 193 233 146 173 208 177 152 300 313 291 281 200 203 351 106 64 10 8 11 220 172 172 232 220 187 203 205 193 182 180
315 309 233 206 227 262 20 63 191 240 279 325 352 227 195 177 235 166 153 200 261 121 101 234 317 258 248 173 180 188 147 155 195 193 269 49 280 260 239 181 193 152 172 174 185
317 312 263 245 196 119 80 117 209 213 309 7 348 9 221 239 207 157 183 204 204 169 168 184 263 272 220 191 130 219 143 193 102 318 76 317 309 299 15 296 113 125 165 176 184
322 329 264 194 142 83 82 227 245 303 21 25 21 281 31 304 298 195 180 205 217 200 180 218 290 261 270 97 187 151 170 69 24 139 146 299 268 240 285 255 247 168 170 164 181
347 355 274 132 98 51 165 232 287 294 344 321 326 310 291 273 214 283 224 260 209 228 164 160 148 272 102 171 193 310 231 79 120 125 146 186 262 215 217 205 177 167 172 171 174
345 360 305 44 65 176 186 218 264 277 288 284 259 255 236 255 272 220 252 226 222 222 181 192 162 208 228 225 200 179 197 134 126 222 99 157 263 292 156 143 152 184 191 170 174
339 278 291 111 175 275 299 288 264 272 267 246 246 232 271 204 319 235 285 288 298 243 206 186 214 245 336 351 24 63 49 63 102 85 186 141 245 125 131 162 191 172 182 168 160
355 351 326 20 37 26 352 303 324 306 282 312 246 243 243 232 179 238 311 296 316 344 264 109 141 160 190 203 163 146 319 120 104 108 180 207 166 153 195 167 182 209 183 162 153
67 316 53 330 335 326 313 278 329 335 348 0 347 1 281 222 263 263 210 304 326 315 37 85 187 145 178 169 169 157 16 17 7 153 180 208 178 179 184 192 185 192 167 141 129
39 20 340 273 287 324 305 307 324 344 335 351 354 334 10 45 288 207 111 258 212 320 67 9 308 88 146 152 139 96 317 285 336 15 19 162 225 243 169 174 180 177 158 152 142
327 334 112 288 314 1 4 336 343 345 306 351 327 332 6 345 311 264 238 224 241 141 89 67 42 54 194 137 101 36 179 259 86 232 160 161 215 156 189 191 187 165 163 162 155